Hourly Weather Roundup
Issued by NWS Central Illinois

Home | Current Version | Previous Version | Text Only | Print | Product List | Glossary On
Versions: 1 2 3 4 5 6 7 8 9 10 11 12 13 14 15 16 17 18 19 20 21 22 23 24 25 26 27 28 29 30 31 32 33 34 35 36 37 38 39 40 41 42 43 44 45 46 47 48 49 50
000
NZUS43 KILX 271710
HWRILX

AREA WEATHER ROUNDUP
NATIONAL WEATHER SERVICE, LINCOLN IL
1100 AM CST SAT DEC 27 2014


CITY           SKY/WX    TMP DP  RH WIND       PRES   REMARKS
BLOOMINGTON    CLOUDY    42  41  97 W17G25    30.10R FOG     WCI  34
CHAMPAIGN      CLOUDY    48  46  93 SW15      30.09F FOG
DECATUR        CLOUDY    49  47  93 W12       30.11S
FLORA          CLOUDY    49  48  97 SW8       30.12F FOG
GALESBURG      CLOUDY    37  31  79 W20G25    30.11S WCI  26
JACKSONVILLE   CLOUDY    42  33  71 W17       30.15F WCI  34
LACON          CLOUDY    38  31  76 W9G21     30.07F WCI  31
LAWRENCEVILLE  CLOUDY    48  47  96 S13       30.14F FOG
LITCHFIELD     CLOUDY    43  40  90 W15       30.14F FOG
$$


CITY           SKY/WX    TMP DP  RH WIND       PRES   REMARKS
LINCOLN        CLOUDY    44  41  88 W8G16     30.11F
MACOMB         CLOUDY    37  33  82 W16       30.15F WCI  28
MATTOON        FOG       46  46 100 S8        30.11F VSB 3/4
MT CARMEL AP   CLOUDY    50  46  87 S10       30.13F FOG
OLNEY-NOBLE AP CLOUDY    46  46 100 CALM      30.14F FOG
PARIS          CLOUDY    46  46 100 SW14      30.12F FOG
PEORIA         CLOUDY    40  32  73 W17       30.11R WCI  31
PONTIAC        CLOUDY    45  43  93 W29G35    30.09R WCI  35
RANTOUL        CLOUDY    49  48  95 SW15      30.09R
ROBINSON       CLOUDY    47  46  97 S10       30.14F FOG
SPRINGFIELD    CLOUDY    42  36  79 W16       30.13S WCI  34
TAYLORVILLE    CLOUDY    43  41  93 W14G22    30.13S FOG
$$

...REGIONAL REPORTS...


CITY           SKY/WX    TMP DP  RH WIND       PRES   REMARKS
CHICAGO O`HARE DRIZZLE   48  46  93 SW17G25   29.94F FOG
KANKAKEE       CLOUDY    48  47  96 SW18G24   30.05R FOG
MOLINE         CLOUDY    36  28  73 W17       30.07R WCI  26
MOUNT VERNON   CLOUDY    50  45  81 SW10      30.15S
PITTSFIELD     CLOUDY    40  31  70 W13G20    30.17S WCI  33
QUINCY         CLOUDY    38  30  73 W12G21    30.17R WCI  30
ROCKFORD       CLOUDY    37  31  78 W16G26    30.01R WCI  28
$$


CITY           SKY/WX    TMP DP  RH WIND       PRES   REMARKS
BURLINGTON     CLOUDY    37  29  72 W14       30.13R WCI  28
CEDAR RAPIDS   CLOUDY    30  28  92 W22       30.09R WCI  17
DES MOINES     CLOUDY    28  22  78 NW13      30.21R WCI  17
KIRKSVILLE     CLOUDY    34  30  85 W10       30.18S WCI  26
OTTUMWA        CLOUDY    30  25  81 W16       30.16S WCI  19
ST LOUIS       CLOUDY    43  37  79 W16       30.18R
$$


CITY           SKY/WX    TMP DP  RH WIND       PRES   REMARKS
TERRE HAUTE    CLOUDY    47  45  93 SW10      30.12F
EVANSVILLE     CLOUDY    49  46  90 S6        30.17F FOG
INDIANAPOLIS   DRIZZLE   45  43  93 SW12      30.12F FOG
LAFAYETTE      CLOUDY    45  44  97 SW10      30.09R FOG
MADISON        CLOUDY    37  31  78 W9G20     29.90S WCI  30
MILWAUKEE      CLOUDY    49  41  74 SW23G35   29.86R
$$




USA.gov is the U.S. government's official web portal to all federal, state and local government web resources and services.